"Time","Temp","Dewpoint","Humidity","Pressure","Direction","Speed","Gust","Precip","PrecipRate"
"00:04:58","29.8","24.9","81.7","30.39","173","0","0","0.00","0.00"
"00:09:57","29.8","24.7","81","30.39","173","0","0","0.00","0.00"
"00:14:59","29.8","24.8","81.4","30.39","173","0","0","0.00","0.00"
"00:19:56","29.7","24.8","81.6","30.39","173","0","0","0.00","0.00"
"00:24:58","29.7","25.1","82.9","30.39","173","0","0","0.00","0.00"
"00:29:59","29.6","25.1","83","30.39","173","0","0","0.00","0.00"
"00:34:56","29.5","25.1","83.5","30.39","173","0","0","0.00","0.00"
"00:39:58","29.5","25.3","84.1","30.39","173","0","0","0.00","0.00"
"00:44:56","29.5","25.3","84.4","30.39","173","0","0","0.00","0.00"
"00:49:58","29.5","25.4","84.9","30.39","173","0","0","0.00","0.00"
"00:54:56","29.5","25.5","85","30.39","173","0","0","0.00","0.00"
"00:59:57","29.5","25.6","85.3","30.39","173","0","0","0.00","0.00"
"01:04:59","29.6","25.6","85","30.38","173","0","0","0.00","0.00"
"01:09:58","29.6","25.6","84.8","30.38","173","0","0","0.00","0.00"
"01:14:56","29.6","25.5","84.5","30.39","173","0","0","0.00","0.00"
"01:19:57","29.7","25.7","85","30.39","173","0","0","0.00","0.00"
"01:24:59","29.8","25.6","84.2","30.39","173","0","0","0.00","0.00"
"01:29:56","29.9","25.7","84","30.39","173","0","0","0.00","0.00"
"01:34:59","30.1","25.8","84","30.38","173","0","0","0.00","0.00"
"01:39:57","30.1","26","84.4","30.38","173","0","0","0.00","0.00"
"01:44:59","30.1","26.1","84.8","30.38","173","0","0","0.00","0.00"
"01:49:58","30","26","85","30.38","173","0","0","0.00","0.00"
"01:54:55","30","26","85","30.38","173","0","0","0.00","0.00"
"01:59:57","30","26","84.9","30.38","173","0","0","0.00","0.00"
"02:04:59","30","25.9","84.5","30.38","173","0","0","0.00","0.00"
"02:09:58","30.2","25.7","83.3","30.38","173","0","0","0.00","0.00"
"02:14:56","30.3","25.8","83","30.38","173","0","0","0.00","0.00"
"02:19:58","30.3","25.9","83.7","30.37","173","0","0","0.00","0.00"
"02:24:56","30.3","26.2","84.8","30.37","173","0","0","0.00","0.00"
"02:29:58","30.1","26.1","85","30.37","173","0","0","0.00","0.00"
"02:34:57","30","26","85","30.37","173","0","0","0.00","0.00"
"02:39:59","30","26","85","30.37","173","0","0","0.00","0.00"
"02:44:56","29.9","26","85.5","30.37","173","0","0","0.00","0.00"
"02:49:59","29.7","25.8","85.3","30.37","173","0","0","0.00","0.00"
"02:54:56","29.6","25.9","86","30.37","173","0","0","0.00","0.00"
"02:59:57","29.7","26","86","30.38","173","0","0","0.00","0.00"
"03:04:58","29.8","26","85.7","30.38","173","0","0","0.00","0.00"
"03:09:57","30","26","85.1","30.38","173","0","0","0.00","0.00"
"03:14:58","30.1","26.2","85.4","30.38","173","0","0","0.00","0.00"
"03:19:58","30.3","26.2","84.8","30.36","173","0.8","2.4","0.00","0.00"
"03:24:59","30.4","26.1","84.2","30.36","173","0.8","2.4","0.00","0.00"
"03:29:56","30.4","26.1","84","30.36","173","0","0","0.00","0.00"
"03:34:56","30.4","26.1","83.9","30.36","173","0","0","0.00","0.00"
"03:39:57","30.6","26.2","83.6","30.36","173","0.5","2.4","0.00","0.00"
"03:44:58","30.7","26.4","83.9","30.36","173","1","2.4","0.00","0.00"
"03:49:57","30.6","26.6","85","30.36","173","0.1","1.2","0.00","0.00"
"03:54:57","30.5","26.3","84.3","30.36","173","0","0","0.00","0.00"
"03:59:58","30.5","26.2","83.8","30.36","173","0","0","0.00","0.00"
"04:04:57","30.6","26","82.8","30.36","173","0","0","0.00","0.00"
"04:09:56","30.8","26.5","84","30.36","173","0.1","2.4","0.00","0.00"
"04:14:57","30.9","26.2","82.7","30.36","173","0.8","2.4","0.00","0.00"
"04:19:59","31.1","26.3","82.4","30.34","173","0.7","2.4","0.00","0.00"
"04:24:56","31.1","26.6","83.3","30.34","173","0","0","0.00","0.00"
"04:29:59","30.9","26.8","84.5","30.35","173","0.3","1.2","0.00","0.00"
"04:34:58","30.6","26.5","84.5","30.35","173","0","0","0.00","0.00"
"04:39:59","30.5","26.2","84","30.35","173","0","0","0.00","0.00"
"04:44:55","30.5","26.2","84","30.35","173","0","0","0.00","0.00"
"04:49:58","30.4","26.1","84","30.34","173","0","0","0.00","0.00"
"04:54:58","30.3","26.1","84.2","30.34","173","0","0","0.00","0.00"
"04:59:59","30.3","26.3","85","30.34","173","0.2","1.2","0.00","0.00"
"05:04:59","30.2","26.2","85","30.34","173","0","0","0.00","0.00"
"05:09:58","30.2","26","84.3","30.34","173","0","0","0.00","0.00"
"05:14:59","30.2","26","84.3","30.35","173","0.2","1.2","0.00","0.00"
"05:19:57","30.1","26.3","85.5","30.35","173","0","0","0.00","0.00"
"05:24:57","30.1","26.1","85","30.35","173","0","0","0.00","0.00"
"05:29:57","30.3","26.3","85","30.35","173","0","0","0.00","0.00"
"05:34:59","30.5","26.3","84.3","30.34","173","0","0","0.00","0.00"
"05:39:56","30.6","26.3","83.8","30.34","173","0","0","0.00","0.00"
"05:44:56","30.7","26.2","83.5","30.34","173","0","0","0.00","0.00"
"05:49:57","30.7","26.6","84.8","30.34","173","0","0","0.00","0.00"
"05:54:57","30.6","26.3","84.2","30.34","173","0","0","0.00","0.00"
"05:59:57","30.5","26.3","84.4","30.35","173","0","0","0.00","0.00"
"06:04:57","30.4","26.3","84.6","30.35","173","0","2.4","0.00","0.00"
"06:09:58","30.6","26.1","83.1","30.35","173","0.1","2.3","0.00","0.00"
"06:14:58","30.8","26.1","82.5","30.35","173","0","1.2","0.00","0.00"
"06:19:59","31","26.3","82.5","30.34","173","1","3.6","0.00","0.00"
"06:24:58","31","26.2","82.2","30.34","173","0.8","3.6","0.00","0.00"
"06:29:58","31.2","25.9","80.6","30.34","173","0.6","2.4","0.00","0.00"
"06:34:59","31.4","25.9","79.8","30.34","174","0.5","2.4","0.00","0.00"
"06:39:56","31.5","26.1","80.4","30.34","174","0.5","2.4","0.00","0.00"
"06:44:56","31.3","26","80.5","30.35","173","0.9","3.6","0.00","0.00"
"06:49:57","30.9","25.9","81.4","30.35","168","1.3","3.6","0.00","0.00"
"06:54:57","30.9","25.5","80","30.35","163","0.7","3.5","0.00","0.00"
"06:59:58","31.2","25.6","79.4","30.35","164","0.4","2.4","0.00","0.00"
"07:04:59","31.7","25.7","78.4","30.32","164","0.1","2.4","0.00","0.00"
"07:09:59","31.8","26.3","80.2","30.32","170","2.3","4.8","0.00","0.00"
"07:14:59","31.5","25.9","79.6","30.34","171","0.5","3.5","0.00","0.00"
"07:19:57","31.6","25.8","79","30.34","171","0.4","3.6","0.00","0.00"
"07:24:58","31.8","26.1","79.3","30.34","171","0.4","1.2","0.00","0.00"
"07:29:58","32","26.2","78.9","30.34","171","0.7","2.4","0.00","0.00"
"07:34:57","32.2","26.2","78.2","30.34","158","1.6","4.8","0.00","0.00"
"07:39:57","32.6","26.5","78.1","30.34","146","2.4","4.8","0.00","0.00"
"07:44:57","32.7","26.7","78.3","30.34","146","0.8","3.5","0.00","0.00"
"07:49:57","32.9","27","78.7","30.31","146","1.2","3.6","0.00","0.00"
"07:54:57","33","27.7","80.8","30.31","146","1.8","3.6","0.00","0.00"
"07:59:59","33","27.8","80.8","30.34","168","1.9","4.8","0.00","0.00"
"08:04:59","33.2","27.4","79","30.34","206","1","3.5","0.00","0.00"
"08:09:58","33.5","27.5","78.6","30.34","206","0.3","2.4","0.00","0.00"
"08:14:56","33.8","28","79.1","30.35","206","0","0","0.00","0.00"
"08:19:56","34.1","28","77.9","30.35","206","0","0","0.00","0.00"
"08:24:56","34.5","28.1","77.3","30.35","206","0","1.2","0.00","0.00"
"08:29:56","35.1","28.8","77.7","30.35","206","1.2","3.6","0.00","0.00"
"08:34:57","35.5","28.9","76.6","30.34","193","1.6","3.6","0.00","0.00"
"08:39:59","35.8","28.8","75.3","30.34","186","1.2","3.6","0.00","0.00"
"08:44:59","36.2","28.9","74.8","30.34","155","2.4","7.2","0.00","0.00"
"08:49:59","36.5","29.1","74.3","30.32","142","2.7","6.9","0.00","0.00"
"08:54:59","36.9","29.6","74.7","30.32","178","2.3","4.8","0.00","0.00"
"08:59:58","37.3","29.9","74.4","30.33","202","2.4","4.8","0.00","0.00"
"09:04:56","37.7","29.7","72.6","30.33","209","2.7","4.8","0.00","0.00"
"09:09:59","38","29.7","71.8","30.33","197","2.5","4.8","0.00","0.00"
"09:14:59","38.5","30","71.4","30.33","188","3.5","8.4","0.00","0.00"
"09:19:58","39.1","30.7","71.6","30.32","205","3.6","8.4","0.00","0.00"
"09:24:58","39.4","30.4","70","30.32","201","4.4","8.4","0.00","0.00"
"09:29:58","40.2","30.8","69","30.32","191","4","9.6","0.00","0.00"
"09:34:56","40.9","30.9","67.4","30.32","189","4.4","14.4","0.00","0.00"
"09:39:57","41.2","30.8","66.4","30.32","199","6.2","12","0.00","0.00"
"09:44:56","41.6","31.2","66.2","30.32","204","6.7","13.2","0.00","0.00"
"09:49:57","41.8","30.7","64.6","30.32","200","5.6","12","0.00","0.00"
"09:54:57","41.7","30.5","64.3","30.32","205","5.1","13.2","0.00","0.00"
"09:59:56","42.3","31","64","30.32","187","4.1","9.6","0.00","0.00"
"10:04:56","42.5","30.6","62.5","30.30","195","3.7","10.8","0.00","0.00"
"10:09:59","42.8","30.6","61.8","30.30","181","3.7","10.8","0.00","0.00"
"10:14:59","43.4","31","61.5","30.30","200","4.2","12","0.00","0.00"
"10:19:56","44.9","32.4","61.4","30.30","207","5.1","10.8","0.00","0.00"
"10:24:59","45.9","32.5","59.3","30.30","199","5.6","17.3","0.00","0.00"
"10:29:59","45.3","31.7","58.6","30.31","207","6","13.2","0.00","0.00"
"10:34:58","45.5","31.7","58.3","30.31","203","6.7","15","0.00","0.00"
"10:39:57","45.2","31.2","57.5","30.31","198","6.2","13.2","0.00","0.00"
"10:44:57","45.6","31.7","58.2","30.31","196","5","10.8","0.00","0.00"
"10:49:57","46.1","32.2","58.1","30.29","196","5.3","12","0.00","0.00"
"10:54:59","46.8","32.5","57.4","30.29","186","6.3","12","0.00","0.00"
"10:59:59","47.4","32.5","56","30.29","187","5.7","13.2","0.00","0.00"
"11:04:59","48.4","33.2","55.6","30.27","172","4.1","8.4","0.00","0.00"
"11:09:58","48.9","32.9","54","30.27","176","5","12","0.00","0.00"
"11:14:59","49.7","33","52.4","30.27","185","8","16.1","0.00","0.00"
"11:19:57","50.8","33.9","52.2","30.24","207","7.3","15","0.00","0.00"
"11:24:58","50.7","32.3","49.2","30.24","189","9.2","19.6","0.00","0.00"
"11:29:57","51.5","33.1","49.3","30.24","200","6.9","18","0.00","0.00"
"11:34:59","52.2","33","47.8","30.24","213","9.7","17.3","0.00","0.00"
"11:39:59","53.7","34.4","47.8","30.24","214","6.8","16.1","0.00","0.00"
"11:44:59","53.1","33.3","46.9","30.24","208","8.5","19.6","0.00","0.00"
"11:49:59","53.5","33.7","47","30.22","201","8.1","18.4","0.00","0.00"
"11:54:59","54.7","34.5","46.4","30.22","206","7","16.1","0.00","0.00"
"11:59:59","54.7","33.4","44.3","30.22","207","8.4","17.3","0.00","0.00"
"12:04:59","55.3","33.4","43.5","30.21","212","7.9","17.3","0.00","0.00"
"12:09:57","55.5","32.9","42.3","30.21","202","7.2","15","0.00","0.00"
"12:14:58","56.2","32.2","40","30.21","204","9.4","19.6","0.00","0.00"
"12:19:56","57.5","32.8","39.2","30.19","217","8.3","17.3","0.00","0.00"
"12:24:56","57.6","31.8","37.5","30.19","197","8.1","20.7","0.00","0.00"
"12:29:56","57.3","30.9","36.5","30.19","190","9.5","18","0.00","0.00"
"12:34:58","57.8","31.1","36.2","30.17","188","8.5","18.4","0.00","0.00"
"12:39:58","58.5","31.2","35.4","30.17","202","8.3","21.6","0.00","0.00"
"12:44:59","58.9","30.9","34.5","30.17","212","9.2","21.9","0.00","0.00"
"12:49:57","60.3","32.2","34.6","30.16","203","7.6","18.4","0.00","0.00"
"12:54:57","60.1","30.8","32.9","30.16","208","9.7","23","0.00","0.00"
"12:59:57","59.7","29.6","31.8","30.16","202","12.9","27.6","0.00","0.00"
"13:04:59","60.4","31.7","33.7","30.14","198","9.7","18","0.00","0.00"
"13:09:58","60.2","30.5","32.3","30.14","213","10.3","18.4","0.00","0.00"
"13:14:59","60.4","30.7","32.5","30.14","206","8","17.3","0.00","0.00"
"13:19:58","60.1","29.1","30.7","30.13","181","8.6","15","0.00","0.00"
"13:24:59","59.6","28.9","31","30.13","211","9.5","21.9","0.00","0.00"
"13:29:59","59.4","28.7","31.1","30.13","187","8","16.1","0.00","0.00"
"13:34:56","59.6","29.6","32","30.11","202","6.8","16.1","0.00","0.00"
"13:39:57","60.4","31.2","33.1","30.11","218","5.9","13.2","0.00","0.00"
"13:44:57","60.3","29.8","31.5","30.11","204","8.3","15","0.00","0.00"
"13:49:58","59.5","29.9","32.5","30.10","178","6.4","16.1","0.00","0.00"
"13:54:58","59.5","29","31.3","30.10","206","9.8","16.1","0.00","0.00"
"13:59:58","59.2","29.4","32.2","30.10","211","7.3","15","0.00","0.00"
"14:04:58","59.3","28.8","31.3","30.09","186","4.8","13.2","0.00","0.00"
"14:09:57","60.4","30.5","32.1","30.09","192","5.6","12","0.00","0.00"
"14:14:57","61.8","29.1","28.9","30.09","186","9.5","19.6","0.00","0.00"
"14:19:58","62.5","29.2","28.3","30.07","186","7.5","18.4","0.00","0.00"
"14:24:56","62.9","29.2","28","30.07","177","7.1","19.6","0.00","0.00"
"14:29:56","62.9","28.1","26.7","30.07","188","7.9","19.6","0.00","0.00"
"14:34:59","63.3","28.9","27.2","30.06","170","7.6","19.6","0.00","0.00"
"14:39:59","62.6","27.6","26.4","30.06","193","10.4","20.7","0.00","0.00"
"14:44:59","62.3","26.6","25.7","30.06","182","9.4","18.4","0.00","0.00"
"14:49:59","62.5","26.9","25.8","30.05","203","11.2","23","0.00","0.00"
"14:54:59","62.7","26.8","25.5","30.05","195","10","21.9","0.00","0.00"
"14:59:59","63","27.5","25.9","30.05","213","11.4","20.7","0.00","0.00"
"15:04:57","63.8","28.2","26","30.04","200","7.7","17.3","0.00","0.00"
"15:09:56","63.9","27.9","25.6","30.04","209","8.5","19.6","0.00","0.00"
"15:14:56","64.5","28.7","26","30.04","198","7.8","19.6","0.00","0.00"
"15:19:59","64.8","29.3","26.3","30.02","205","7.8","21.9","0.00","0.00"
"15:24:59","64.2","28.2","25.7","30.02","203","11.9","27.6","0.00","0.00"
"15:29:59","63.6","28.4","26.3","30.02","202","11.1","27.6","0.00","0.00"
"15:34:58","63.6","28.1","26","30.02","191","12.9","21.9","0.00","0.00"
"15:39:58","63.4","28","26.2","30.02","191","7.7","18.4","0.00","0.00"
"15:44:58","62.5","27.9","26.9","30.02","187","10","19.2","0.00","0.00"
"15:49:59","63.3","29.5","28","30.00","217","9.1","19.6","0.00","0.00"
"15:54:59","64.1","29.7","27.3","30.00","185","7.6","20.7","0.00","0.00"
"15:59:59","63.5","30.2","28.5","30.00","187","6.7","18.4","0.00","0.00"
"16:04:58","63.2","30.3","28.9","30.00","218","10.2","22.8","0.00","0.00"
"16:09:56","63.1","31.7","30.8","30.00","199","7.7","21.9","0.00","0.00"
"16:14:56","62.8","33.1","32.8","30.00","222","8.8","18.4","0.00","0.00"
"16:19:59","62.5","33.9","34.2","29.99","218","10.1","17.3","0.00","0.00"
"16:24:59","62.4","34.5","35.1","29.99","205","11","24.2","0.00","0.00"
"16:29:59","62.2","35.3","36.5","29.99","207","9.6","24.2","0.00","0.00"
"16:34:56","62.2","35.5","36.8","29.99","206","10.8","25.3","0.00","0.00"
"16:39:56","62","35.5","37.2","29.99","201","12","19.6","0.00","0.00"
"16:44:57","61.9","36","38.1","29.99","210","11","23","0.00","0.00"
"16:49:57","61.8","36.3","38.7","29.99","211","8.2","17.3","0.00","0.00"
"16:54:57","61.7","37","39.8","29.99","212","12.7","21.9","0.00","0.00"
"16:59:57","61.5","37.3","40.5","29.99","209","8.5","18.4","0.00","0.00"
"17:04:58","61.4","37.5","41","29.98","201","7.2","19.6","0.00","0.00"
"17:09:56","61.1","37.8","42","29.98","198","6.7","17.3","0.00","0.00"
"17:14:57","60.8","37.8","42.4","29.98","196","6.8","15","0.00","0.00"
"17:19:59","60.6","38","43.1","29.98","203","6.5","16.1","0.00","0.00"
"17:24:56","60.4","38.4","44","29.98","209","8.4","17.3","0.00","0.00"
"17:29:56","60.2","38.7","44.9","29.98","206","7.9","15","0.00","0.00"
"17:34:58","60.1","38.8","45.2","29.97","206","8.2","17.3","0.00","0.00"
"17:39:59","60","39.3","46.3","29.97","192","8.5","18.4","0.00","0.00"
"17:44:56","59.8","39.7","47.3","29.97","200","7.6","16.1","0.00","0.00"
"17:49:57","59.6","40.4","48.9","29.97","200","9.1","21.6","0.00","0.00"
"17:54:58","59.7","41","50","29.97","212","9.5","21.9","0.00","0.00"
"17:59:59","59.6","41.2","50.6","29.97","195","8.9","22.8","0.00","0.00"
"18:04:58","59.6","41.5","51.2","29.97","201","10.5","23","0.00","0.00"
"18:09:57","59.7","42","52","29.97","189","8.3","20.7","0.00","0.00"
"18:14:58","59.5","42.1","52.5","29.97","191","6.2","16.8","0.00","0.00"
"18:19:58","59.2","42.1","53","29.97","176","5.7","18.4","0.00","0.00"
"18:24:59","59.1","41.7","52.4","29.97","181","6.2","15","0.00","0.00"
"18:29:56","59","41.2","51.7","29.97","182","6","15","0.00","0.00"
"18:34:56","58.7","41.1","52","29.97","178","4.6","14.4","0.00","0.00"
"18:39:57","58.4","40.9","52.4","29.97","186","5.4","15","0.00","0.00"
"18:44:58","58.2","41.1","53.2","29.97","192","7","16.1","0.00","0.00"
"18:49:59","58.1","41.5","54","29.97","195","7.5","17.3","0.00","0.00"
"18:54:56","58","41.5","54.1","29.97","193","7","16.1","0.00","0.00"
"18:59:57","58","41.9","55","29.97","198","7.4","16.1","0.00","0.00"
"19:04:56","58","42.1","55.4","29.97","183","6.9","18.4","0.00","0.00"
"19:09:59","57.8","42.2","56","29.97","196","4.1","12","0.00","0.00"
"19:14:56","57.5","42.1","56.5","29.97","185","6.7","15","0.00","0.00"
"19:19:56","57.4","42.1","56.6","29.96","181","7.6","17.3","0.00","0.00"
"19:24:57","57.3","42.2","57","29.96","185","6.3","16.1","0.00","0.00"
"19:29:57","57.1","42","57","29.96","174","5.9","15","0.00","0.00"
"19:34:56","57","42.1","57.4","29.96","184","7.2","18.4","0.00","0.00"
"19:39:57","56.8","42.1","57.8","29.96","173","7.6","17.3","0.00","0.00"
"19:44:58","56.7","42.1","58","29.96","174","6.8","17.3","0.00","0.00"
"19:49:58","56.4","42.2","58.9","29.96","186","4.8","13.2","0.00","0.00"
"19:54:58","56.2","42.1","59","29.96","184","6.5","13.2","0.00","0.00"
"19:59:59","56.1","42.3","59.8","29.96","194","4.7","13.2","0.00","0.00"
"20:04:58","55.8","42.1","60","29.96","183","5.6","12","0.00","0.00"
"20:09:57","55.7","42.1","60.3","29.96","185","4.8","10.8","0.00","0.00"
"20:14:58","55.5","42.4","61.4","29.96","179","5.5","13.2","0.00","0.00"
"20:19:59","55.4","42.6","62","29.95","181","6","14.4","0.00","0.00"
"20:24:59","55.4","42.7","62.2","29.95","181","5.8","13.2","0.00","0.00"
"20:29:56","55.3","42.9","63","29.95","191","6.2","16.1","0.00","0.00"
"20:34:57","55.2","42.9","63.3","29.95","195","6.4","13.2","0.00","0.00"
"20:39:58","55","43","64","29.95","181","5.5","12.7","0.00","0.00"
"20:44:59","54.8","43.1","64.6","29.96","193","4.5","12","0.00","0.00"
"20:49:59","54.7","43.5","65.8","29.96","194","8.2","18.4","0.00","0.00"
"20:54:56","54.7","43.6","66","29.96","198","5.7","15","0.00","0.00"
"20:59:57","54.6","43.6","66.3","29.96","195","6.2","15","0.00","0.00"
"21:04:58","54.5","43.8","67","29.96","198","6.8","15","0.00","0.00"
"21:09:57","54.4","44.1","68","29.96","205","6.3","15.6","0.00","0.00"
"21:14:58","54.3","44","68","29.96","196","7.5","18","0.00","0.00"
"21:19:58","54.3","44.3","68.9","29.96","206","7.9","18.4","0.00","0.00"
"21:24:59","54.4","44.4","69","29.96","197","8.1","18.4","0.00","0.00"
"21:29:56","54.5","44.5","69","29.96","195","8.6","18.4","0.00","0.00"
"21:34:56","54.4","44.4","69.2","29.95","206","6.8","13.2","0.00","0.00"
"21:39:58","54.1","44.5","70","29.95","197","5.4","12.7","0.00","0.00"
"21:44:59","53.8","44.4","70.5","29.96","209","5.9","15","0.00","0.00"
"21:49:59","53.7","44.5","71","29.96","197","6.3","15","0.00","0.00"
"21:54:57","53.6","44.5","71.3","29.96","205","4.8","13.2","0.00","0.00"
"21:59:58","53.5","44.7","72","29.96","199","5","14.4","0.00","0.00"
"22:04:57","53.4","44.6","72","29.95","207","6","16.1","0.00","0.00"
"22:09:56","53.4","44.7","72.2","29.95","211","7.3","16.1","0.00","0.00"
"22:14:58","53.5","44.7","72","29.95","212","6.7","17.3","0.00","0.00"
"22:19:59","53.5","44.8","72.5","29.94","200","6.1","13.2","0.00","0.00"
"22:24:56","53.4","44.9","72.8","29.94","190","4.7","10.8","0.00","0.00"
"22:29:57","53.3","44.9","73","29.94","199","6.9","15","0.00","0.00"
"22:34:57","53.4","45","73","29.94","210","7.8","15","0.00","0.00"
"22:39:58","53.4","44.7","72.1","29.94","208","6.9","13.2","0.00","0.00"
"22:44:56","53.4","44.6","72","29.94","201","7.1","18.4","0.00","0.00"
"22:49:59","53.4","44.6","72","29.93","213","6.5","15.6","0.00","0.00"
"22:54:57","53.4","44.6","72","29.93","208","5.7","16.1","0.00","0.00"
"22:59:58","53.1","44.5","72.3","29.93","210","5.2","10.8","0.00","0.00"
"23:04:58","53","44.6","73","29.93","197","5.9","15","0.00","0.00"
"23:09:57","52.9","44.5","73","29.93","207","5.2","12","0.00","0.00"
"23:14:59","52.8","44.4","73","29.93","197","5.9","15","0.00","0.00"
"23:19:57","52.8","44.4","73","29.92","194","5.5","15","0.00","0.00"
"23:24:58","52.7","44.3","73","29.92","199","4.3","10.8","0.00","0.00"
"23:29:56","52.6","44.2","73","29.92","196","3.7","8.4","0.00","0.00"
"23:34:58","52.4","44","73","29.92","196","4.9","13.2","0.00","0.00"
"23:39:59","52.5","44.1","73","29.92","202","4.5","12.7","0.00","0.00"
"23:44:56","52.4","44","73","29.92","192","4.7","12","0.00","0.00"
"23:49:57","52.3","44","73.2","29.92","194","3.5","6","0.00","0.00"
